YN1ZGS-13 Weather Reports


time (UTC)temp
F
wind
direction
speed
knots
gust
knots
rain 1hr
in
rain 24hr
in
rain mn
in
humidity
%
barometer
mb
20260504160123 87 80 11.3 0.0 0.00 0.00 0.00 56 1012.0
20260504151121 83 10 3.5 0.0 0.00 0.00 0.00 70 1012.0
20260504150121 84 10 3.5 0.0 0.00 0.00 0.00 70 1012.0
20260504141119 80 90 3.5 0.0 0.00 0.00 0.00 69 1012.0
20260504140119 80 90 3.5 0.0 0.00 0.00 0.00 69 1012.0
20260504130117 76 110 4.3 0.0 0.00 0.00 0.00 77 1012.0
20260504120115 76 110 4.3 0.0 0.00 0.00 0.00 73 1011.0
20260504110112 73 95 8.7 18.2 0.00 0.00 0.00 73 1011.0
20260504100110 75 98 9.6 18.2 0.00 0.00 0.00 73 1011.0
20260504090109 75 95 9.6 18.2 0.00 0.00 0.00 72 1011.0
20260504081107 75 95 10.4 19.1 0.00 0.00 0.00 71 1011.0
20260504080107 76 95 10.4 19.1 0.00 0.00 0.00 69 1011.0
20260504070104 77 104 8.7 18.2 0.00 0.00 0.00 69 1012.0
20260504045100 83 110 9.6 0.0 0.00 0.00 0.00 64 1013.0
20260504044100 83 110 9.6 0.0 0.00 0.00 0.00 63 1013.0
20260504043059 83 110 9.6 0.0 0.00 0.00 0.00 60 1013.0
20260504042059 83 110 9.6 0.0 0.00 0.00 0.00 60 1013.0
20260504041059 84 110 9.6 0.0 0.00 0.00 0.00 55 1013.0
20260504040059 84 110 9.6 0.0 0.00 0.00 0.00 55 1013.0
20260504035059 84 110 9.6 0.0 0.00 0.00 0.00 54 1013.0
20260504034058 84 110 9.6 0.0 0.00 0.00 0.00 54 1013.0
20260504033057 84 110 9.6 0.0 0.00 0.00 0.00 52 1012.0
20260504032057 84 140 3.5 0.0 0.00 0.00 0.00 50 1012.0
20260504031057 85 140 3.5 0.0 0.00 0.00 0.00 50 1012.0
20260504030057 86 140 3.5 0.0 0.00 0.00 0.00 50 1012.0
20260504025056 86 140 3.5 0.0 0.00 0.00 0.00 50 1012.0
20260504024056 86 140 3.5 0.0 0.00 0.00 0.00 50 1012.0
20260504023055 87 140 3.5 0.0 0.00 0.00 0.00 50 1011.0
20260504022056 87 140 3.5 0.0 0.00 0.00 0.00 50 1011.0
20260504021055 88 140 3.5 0.0 0.00 0.00 0.00 50 1011.0
20260504020055 80 273 0.9 6.1 0.00 0.00 0.00 44 1011.0
20260504015054 81 273 0.9 6.1 0.00 0.00 0.00 46 1011.0
20260504014054 81 120 11.3 0.0 0.00 0.00 0.00 45 1010.0
20260504013054 82 120 11.3 0.0 0.00 0.00 0.00 45 1010.0
20260504012054 83 120 11.3 0.0 0.00 0.00 0.00 45 1009.0
20260504011053 84 120 11.3 0.0 0.00 0.00 0.00 45 1009.0
20260504010053 85 120 11.3 0.0 0.00 0.00 0.00 45 1009.0
20260504005053 86 120 11.3 0.0 0.00 0.00 0.00 45 1009.0
20260504004052 87 120 11.3 0.0 0.00 0.00 0.00 46 1009.0
20260504003052 88 120 11.3 0.0 0.00 0.00 0.00 45 1008.0
20260504002051 88 120 11.3 0.0 0.00 0.00 0.00 44 1008.0
20260504001051 88 120 11.3 0.0 0.00 0.00 0.00 42 1008.0
20260504000051 89 120 11.3 0.0 0.00 0.00 0.00 42 1008.0
20260503235050 90 120 11.3 0.0 0.00 0.00 0.00 42 1008.0
20260503234050 90 120 11.3 0.0 0.00 0.00 0.00 41 1008.0
20260503233050 91 120 11.3 0.0 0.00 0.00 0.00 41 1007.0
20260503232049 91 120 11.3 0.0 0.00 0.00 0.00 41 1007.0
20260503231049 91 120 11.3 0.0 0.00 0.00 0.00 40 1007.0
20260503230049 92 120 11.3 0.0 0.00 0.00 0.00 40 1007.0
20260503225048 92 120 11.3 0.0 0.00 0.00 0.00 40 1007.0
20260503224048 92 120 11.3 0.0 0.00 0.00 0.00 40 1007.0
20260503223048 92 120 11.3 0.0 0.00 0.00 0.00 40 1007.0
20260503222047 92 120 11.3 0.0 0.00 0.00 0.00 40 1007.0
20260503221047 93 100 11.3 0.0 0.00 0.00 0.00 39 1007.0
20260503220046 93 100 11.3 0.0 0.00 0.00 0.00 39 1007.0
20260503215046 93 100 11.3 0.0 0.00 0.00 0.00 39 1007.0
20260503214046 93 100 11.3 0.0 0.00 0.00 0.00 39 1007.0
20260503213046 93 100 11.3 0.0 0.00 0.00 0.00 39 1007.0
20260503212045 93 100 11.3 0.0 0.00 0.00 0.00 39 1008.0
20260503211044 93 100 11.3 0.0 0.00 0.00 0.00 39 1008.0
20260503210044 94 100 11.3 0.0 0.00 0.00 0.00 39 1008.0
20260503205043 94 100 11.3 0.0 0.00 0.00 0.00 41 1008.0
20260503204043 95 100 11.3 0.0 0.00 0.00 0.00 40 1008.0
20260503203043 95 100 11.3 0.0 0.00 0.00 0.00 40 1008.0
20260503202042 96 100 11.3 0.0 0.00 0.00 0.00 41 1008.0
20260503201042 92 124 6.1 7.0 0.00 0.00 0.00 43 1008.0
20260503200042 93 124 6.1 7.0 0.00 0.00 0.00 41 1008.0
20260503195041 94 124 6.1 7.8 0.00 0.00 0.00 41 1008.0
20260503194041 92 124 6.1 7.0 0.00 0.00 0.00 49 1009.0
20260503193041 93 124 6.1 7.8 0.00 0.00 0.00 49 1009.0
20260503192041 91 120 4.3 0.0 0.00 0.00 0.00 48 1010.0
20260503191040 92 120 5.2 0.0 0.00 0.00 0.00 47 1010.0
20260503190040 91 120 5.2 0.0 0.00 0.00 0.00 47 1010.0
20260503185039 91 120 5.2 0.0 0.00 0.00 0.00 47 1010.0
20260503184039 92 120 5.2 0.0 0.00 0.00 0.00 46 1010.0
20260503183038 89 100 3.5 0.0 0.00 0.00 0.00 52 1011.0
20260503182038 89 100 3.5 0.0 0.00 0.00 0.00 52 1011.0
20260503181038 90 100 3.5 0.0 0.00 0.00 0.00 52 1011.0
20260503180037 90 100 3.5 0.0 0.00 0.00 0.00 52 1011.0
20260503175037 89 100 3.5 0.0 0.00 0.00 0.00 52 1011.0
20260503174037 90 100 3.5 0.0 0.00 0.00 0.00 52 1011.0
20260503173036 89 100 3.5 0.0 0.00 0.00 0.00 53 1011.0
20260503172036 90 100 3.5 0.0 0.00 0.00 0.00 52 1012.0
20260503171036 87 110 7.0 0.0 0.00 0.00 0.00 55 1012.0